Starlink 33548

operational
NORAD ID: 62280 Int'l Des: 2024-237 Owner: SPXS Country: US Constellation: starlink
LEOCIRCULAR

Starlink 33548について

説明を読み込み中...

リアルタイム位置

3D地球を読み込み中...

次回通過

高度履歴

Altitude vs Time

uPlot chart will show altitude changes over time

軌道要素

1 62280U 24237P 25350.95096969 .00020651 00000-0 75723-3 0 9995
2 62280 43.0015 312.7691 0000272 313.0518 47.0310 15.27607989 58668
Epoch: Dec 16, 2025 • Age: 9 hours

現在のステータス

高度 482.3 km
速度 7.63 km/s
衛星直下点 5.53°N, 72.63°W
打ち上げ日 Dec 8, 2024
運用期間 1 years
タイプ internet

技術仕様

分類 Payload
質量 530.00 kg
乾燥質量 500.00 kg
総質量 530.00 kg
長さ 0.30 m
直径 4.10 m
スパン 29.00 m
形状 Box + pan
製造者 SPXS
バスタイプ Starlink V2MO
フェーズステータス In Orbit
所有者/国 SPXS/US

大規模コンステレーション

Loading constellations...